DW6368 Weather Reports


Display with metric or nautical units.
time (UTC)temp
F
wind
direction
speed
MPH
gust
MPH
rain 1hr
in
rain 24hr
in
rain mn
in
humidity
%
barometer
mb
20260906025306 77 313 1.0 4.0 0.00 0.00 0.00 73 1010.6
20260906024303 78 328 1.0 5.0 0.00 0.00 0.00 71 1010.6
20260906023303 78 298 2.0 5.0 0.00 0.00 0.00 70 1010.7
20260906022306 79 303 3.0 7.0 0.00 0.00 0.00 68 1010.7
20260906021302 79 305 4.0 6.0 0.00 0.00 0.00 65 1010.7
20260906020303 80 298 2.0 8.0 0.00 0.00 0.00 63 1010.7
20260906015324 81 303 2.0 5.0 0.00 0.00 0.00 60 1010.6
20260906014302 83 303 2.0 6.0 0.00 0.00 0.00 59 1010.6
20260906013303 85 303 3.0 9.0 0.00 0.00 0.00 54 1010.5
20260906012306 86 302 2.0 4.0 0.00 0.00 0.00 51 1010.5
20260906011303 86 223 1.0 3.0 0.00 0.00 0.00 48 1010.3
20260906010303 86 237 1.0 5.0 0.00 0.00 0.00 50 1010.2
20260906005306 85 211 1.0 3.0 0.00 0.00 0.00 52 1010.4
20260906004303 85 207 1.0 6.0 0.00 0.00 0.00 53 1010.4
20260906003303 86 203 1.0 4.0 0.00 0.00 0.00 51 1010.4
20260906002305 85 208 1.0 5.0 0.00 0.00 0.00 49 1010.3
20260906001303 85 186 1.0 6.0 0.00 0.00 0.00 47 1010.4
20260906000348 86 205 1.0 5.0 0.00 0.00 0.00 47 1010.5
20260905235306 87 221 1.0 5.0 0.00 0.00 0.00 46 1010.5
20260905234303 88 195 1.0 6.0 0.00 0.00 0.00 42 1010.4
20260905233303 89 182 1.0 7.0 0.00 0.00 0.00 40 1010.4
20260905232305 91 217 3.0 7.0 0.00 0.00 0.00 35 1010.5
20260905231303 92 240 3.0 7.0 0.00 0.00 0.00 31 1010.4
20260905230303 92 212 2.0 6.0 0.00 0.00 0.00 32 1010.4
20260905225305 92 203 1.0 6.0 0.00 0.00 0.00 33 1010.5
20260905224303 92 241 2.0 5.0 0.00 0.00 0.00 33 1010.7
20260905223303 91 207 2.0 6.0 0.00 0.00 0.00 34 1010.8
20260905222306 91 197 2.0 7.0 0.00 0.00 0.00 32 1010.9
20260905221303 91 228 3.0 6.0 0.00 0.00 0.00 29 1010.9
20260905220303 91 183 1.0 7.0 0.00 0.00 0.00 31 1011.2
20260905215305 91 244 3.0 7.0 0.00 0.00 0.00 30 1011.2
20260905214324 90 194 1.0 6.0 0.00 0.00 0.00 32 1011.4
20260905213302 90 211 2.0 6.0 0.00 0.00 0.00 33 1011.4
20260905212324 90 232 2.0 5.0 0.00 0.00 0.00 35 1011.4
20260905211303 89 235 2.0 6.0 0.00 0.00 0.00 35 1011.6
20260905205306 88 199 2.0 7.0 0.00 0.00 0.00 38 1011.6
20260905204303 88 226 3.0 7.0 0.00 0.00 0.00 39 1011.8
20260905203303 88 215 5.0 5.0 0.00 0.00 0.00 37 1011.9
20260905202324 88 221 3.0 7.0 0.00 0.00 0.00 39 1011.8
20260905201303 88 205 2.0 7.0 0.00 0.00 0.00 44 1012.0
20260905200303 87 242 2.0 5.0 0.00 0.00 0.00 45 1012.1
20260905195306 87 223 2.0 9.0 0.00 0.00 0.00 49 1012.2
20260905194303 87 224 3.0 7.0 0.00 0.00 0.00 51 1012.4
20260905193324 87 221 3.0 6.0 0.00 0.00 0.00 49 1012.6
20260905192306 87 229 2.0 6.0 0.00 0.00 0.00 49 1012.6
20260905191303 87 224 2.0 6.0 0.00 0.00 0.00 54 1012.7
20260905190303 87 213 2.0 6.0 0.00 0.00 0.00 56 1012.8
20260905185305 87 217 2.0 5.0 0.00 0.00 0.00 56 1013.0
20260905184303 86 212 2.0 6.0 0.00 0.00 0.00 56 1012.9
20260905183324 86 170 1.0 4.0 0.00 0.00 0.00 55 1013.0
20260905182305 85 223 2.0 6.0 0.00 0.00 0.00 59 1013.0
20260905181324 85 301 0.0 3.0 0.00 0.00 0.00 48 1013.0
20260905180303 84 253 1.0 3.0 0.00 0.00 0.00 50 1013.0
20260905175306 83 181 1.0 3.0 0.00 0.00 0.00 56 1013.0
20260905174303 82 176 0.0 3.0 0.00 0.00 0.00 60 1013.3
20260905173303 82 63 1.0 4.0 0.00 0.00 0.00 61 1013.0
20260905172324 81 151 1.0 2.0 0.00 0.00 0.00 66 1013.1
20260905171324 80 102 1.0 3.0 0.00 0.00 0.00 70 1013.1
20260905170302 78 201 1.0 2.0 0.00 0.00 0.00 72 1013.2
20260905165306 77 307 1.0 3.0 0.00 0.00 0.00 74 1013.2
20260905164303 77 353 1.0 2.0 0.00 0.00 0.00 73 1013.2
20260905163303 76 181 1.0 2.0 0.00 0.00 0.00 78 1013.2
20260905162305 75 94 1.0 4.0 0.00 0.00 0.00 80 1013.1
20260905161302 73 114 1.0 2.0 0.00 0.00 0.00 84 1013.1
20260905160303 71 318 1.0 4.0 0.00 0.00 0.00 87 1013.1
20260905155306 70 349 1.0 2.0 0.00 0.00 0.00 89 1013.1
20260905154303 69 45 1.0 2.0 0.00 0.00 0.00 91 1013.1
20260905153302 68 55 1.0 2.0 0.00 0.00 0.00 94 1013.0
20260905152324 67 14 0.0 2.0 0.00 0.00 0.00 97 1012.8
20260905151303 66 302 1.0 2.0 0.00 0.00 0.00 98 1012.8
20260905150303 65 284 0.0 1.0 0.00 0.00 0.00 98 1012.8
20260905145306 64 341 0.0 2.0 0.00 0.00 0.00 99 1012.7
20260905144302 63 19 0.0 2.0 0.00 0.00 0.00 99 1012.7
20260905143303 62 35 0.0 1.0 0.00 0.00 0.00 100 1012.6
20260905141303 61 23 0.0 2.0 0.00 0.00 0.00 98 1012.3
20260905140303 60 42 0.0 1.0 0.00 0.00 0.00 98 1012.2
20260905135306 60 351 0.0 1.0 0.00 0.00 0.00 98 1012.2
20260905134303 60 44 0.0 1.0 0.00 0.00 0.00 98 1012.1
20260905133324 60 325 0.0 1.0 0.00 0.00 0.00 98 1012.1
20260905132305 60 336 0.0 1.0 0.00 0.00 0.00 97 1011.8
20260905131303 60 35 0.0 1.0 0.00 0.00 0.00 98 1011.8
20260905130303 60 9 0.0 0.0 0.00 0.00 0.00 97 1011.7
20260905125305 61 9 0.0 1.0 0.00 0.00 0.00 97 1011.7
20260905124303 61 309 0.0 1.0 0.00 0.00 0.00 97 1011.6
20260905123303 61 325 0.0 1.0 0.00 0.00 0.00 97 1011.7
20260905122306 61 34 0.0 1.0 0.00 0.00 0.00 97 1011.7
20260905121303 61 28 0.0 1.0 0.00 0.00 0.00 97 1011.8
20260905120303 62 59 0.0 1.0 0.00 0.00 0.00 97 1011.9
20260905115306 62 51 0.0 1.0 0.00 0.00 0.00 97 1011.9
20260905114302 62 51 0.0 1.0 0.00 0.00 0.00 97 1011.9
20260905113303 62 4 0.0 1.0 0.00 0.00 0.00 97 1011.7
20260905112305 62 51 0.0 1.0 0.00 0.00 0.00 97 1011.8
20260905111303 62 51 0.0 1.0 0.00 0.00 0.00 97 1011.9
20260905110302 62 37 0.0 1.0 0.00 0.00 0.00 97 1012.0
20260905105306 62 51 0.0 1.0 0.00 0.00 0.00 97 1012.0
20260905104324 62 53 0.0 1.0 0.00 0.00 0.00 96 1012.0
20260905103325 63 68 0.0 1.0 0.00 0.00 0.00 97 1012.0
20260905102306 63 9 0.0 1.0 0.00 0.00 0.00 97 1012.0
20260905101303 63 37 0.0 1.0 0.00 0.00 0.00 96 1012.1
20260905095345 63 345 0.0 1.0 0.00 0.00 0.00 96 1012.2
20260905094302 63 9 0.0 1.0 0.00 0.00 0.00 97 1012.0
20260905093303 63 9 0.0 1.0 0.00 0.00 0.00 96 1012.1
20260905092323 64 9 0.0 1.0 0.00 0.00 0.00 96 1012.0
20260905091303 64 68 0.0 1.0 0.00 0.00 0.00 96 1012.0
20260905090303 64 51 0.0 1.0 0.00 0.00 0.00 95 1012.1
20260905085305 64 93 0.0 0.0 0.00 0.00 0.00 95 1012.1
20260905084303 64 51 0.0 1.0 0.00 0.00 0.00 96 1012.1
20260905083303 65 349 0.0 1.0 0.00 0.00 0.00 96 1012.3
20260905082306 65 5 0.0 1.0 0.00 0.00 0.00 95 1012.3
20260905081303 65 35 0.0 1.0 0.00 0.00 0.00 96 1012.4
20260905080323 65 15 0.0 1.0 0.00 0.00 0.00 95 1012.4
20260905075306 65 51 0.0 1.0 0.00 0.00 0.00 95 1012.5
20260905074303 65 51 0.0 1.0 0.00 0.00 0.00 94 1012.3
20260905073303 65 13 0.0 1.0 0.00 0.00 0.00 94 1012.3
20260905072324 65 22 0.0 1.0 0.00 0.00 0.00 94 1012.3
20260905071303 65 122 0.0 1.0 0.00 0.00 0.00 94 1012.3
20260905070324 65 69 0.0 1.0 0.00 0.00 0.00 93 1012.3
20260905065306 66 51 0.0 1.0 0.00 0.00 0.00 93 1012.2
20260905064303 66 51 0.0 1.0 0.00 0.00 0.00 93 1012.1
20260905063303 66 93 0.0 1.0 0.00 0.00 0.00 92 1012.1
20260905062305 66 51 0.0 1.0 0.00 0.00 0.00 92 1012.1
20260905061303 67 56 0.0 1.0 0.00 0.00 0.00 92 1012.0
20260905060303 67 51 0.0 1.0 0.00 0.00 0.00 91 1012.1
20260905055323 67 9 0.0 1.0 0.00 0.00 0.00 91 1012.1
20260905054303 67 51 0.0 1.0 0.00 0.00 0.00 90 1012.1
20260905052324 68 9 0.0 1.0 0.00 0.00 0.00 90 1012.0
20260905050303 69 25 0.0 1.0 0.00 0.00 0.00 89 1012.0
20260905045324 69 38 0.0 1.0 0.00 0.00 0.00 88 1012.0
20260905044302 69 51 0.0 1.0 0.00 0.00 0.00 88 1012.0
20260905043324 69 53 0.0 1.0 0.00 0.00 0.00 87 1011.6
20260905042324 70 10 0.0 2.0 0.00 0.00 0.00 87 1011.6
20260905041303 70 51 0.0 2.0 0.00 0.00 0.00 86 1011.6
20260905040303 70 308 0.0 2.0 0.00 0.00 0.00 86 1011.5
20260905035306 71 303 1.0 3.0 0.00 0.00 0.00 85 1011.4
20260905034303 71 301 2.0 3.0 0.00 0.00 0.00 85 1011.3
20260905033324 71 317 1.0 6.0 0.00 0.00 0.00 85 1011.2
20260905032306 71 305 1.0 3.0 0.00 0.00 0.00 84 1011.1
20260905031303 71 305 1.0 5.0 0.00 0.00 0.00 83 1010.9
20260905030302 71 307 2.0 4.0 0.00 0.00 0.00 83 1010.9